Location: *
(13.0000°N, 151.6000°E)
Time: 04:38:53
(UTC+00:00)

Meteor 1-12 Rocket - Pass Details

Date: 01 April 2020
Orbit: 854 x 927 km, 81.2° (Epoch: 24 May)

Event Time Altitude Azimuth Distance (km) Brightness Sun altitude
Rises 19:05:55 0° 348° (NNW) 3,536 7.4 -11.3°
Reaches altitude 10° 19:08:25 10° 344° (NNW) 2,585 6.6 -10.7°
Maximum altitude 19:14:11 59° 266° (W) 1,027 4.4 -9.3°
Drops below altitude 10° 19:19:52 10° 188° (S) 2,535 6.5 -7.9°
Sets 19:22:19 0° 184° (S) 3,462 7.3 -7.4°
